Regional Weather Roundup
Issued by NWS

Home | Current Version | Previous Version | Graphics & Text | Print | Product List | Glossary On
Versions: 1 2 3 4 5 6 7 8 9 10 11 12 13 14 15 16 17 18 19 20 21 22 23 24 25 26 27 28 29 30 31 32 33 34 35 36 37 38 39 40 41 42 43 44 45 46 47 48 49 50
047
ASUS45 KBOI 282110
RWRID

IDAHO REGIONAL WEATHER ROUNDUP
NATIONAL WEATHER SERVICE BOISE ID
300 PM MDT FRI APR 28 2017

NOTE: "FAIR" INDICATES FEW OR NO CLOUDS BELOW 12000 FEET
WITH NO SIGNIFICANT WEATHER AND/OR OBSTRUCTIONS TO VISIBILITY

IDZ012-014-282200-
SOUTHWEST IDAHO


CITY           SKY/WX    TMP DP  RH WIND       PRES   REMARKS
BOISE          PTSUNNY   56  29  35 NW23G30   30.08R
CALDWELL       FAIR      55  31  39 W18G26    30.12R
MOUNTAIN HOME  FAIR      54  29  37 NW29G37   30.05R
$$

IDZ016-017-282200-
SOUTHCENTRAL IDAHO


CITY           SKY/WX    TMP DP  RH WIND       PRES   REMARKS
BURLEY         FAIR      49  23  36 W9G22     29.98S
JEROME         FAIR      51  24  34 W14G20    30.01S
TWIN FALLS     FAIR      50  25  37 W12G24    30.02R
$$

IDZ019>023-282200-
SOUTHEAST IDAHO


CITY           SKY/WX    TMP DP  RH WIND       PRES   REMARKS
IDAHO FALLS    CLOUDY    47  29  49 N17G23    29.94R
POCATELLO      CLOUDY    45  30  55 NW10      29.98R
REXBURG        CLOUDY    47  23  38 N17G24    29.93R
$$

IDZ006-010-011-018-031-032-282200-
CENTRAL IDAHO MOUNTAINS


CITY           SKY/WX    TMP DP  RH WIND       PRES   REMARKS
MCCALL         CLOUDY    44  22  41 NW12      30.09R
HAILEY         MOSUNNY   48  16  27 N10       29.99R
STANLEY          N/A     40  15  36 N9G16     30.04R WCI  34
SALMON         PTSUNNY   54  23  30 N12G21    30.03S
CHALLIS        PTSUNNY   50  18  28 MISG      30.02R
$$

IDZ002-004-006-007-026-282200-
NORTHERN IDAHO


CITY           SKY/WX    TMP DP  RH WIND       PRES   REMARKS
LEWISTON       PTSUNNY   58  36  43 N10       30.21S
LOWELL           N/A     46  39  76 CALM      30.27R
COEUR D`ALENE  FAIR      52  38  58 SE8       30.18S
MULLAN PASS    SNOW      33  31  92 VRB6      30.13R VSB 1/4 WCI  28
$$




USA.gov is the U.S. government's official web portal to all federal, state and local government web resources and services.